Location: Unspecified
(52.1384°N, 8.6525°W)
Time: 18:59:31
(UTC+00:00)

N. Korean satellite - Pass Details

Date: 03 November 2020
Orbit: 453 x 503 km, 97.2° (Epoch: 04 December)

Event Time Altitude Azimuth Distance (km) Brightness Sun altitude
Rises 05:26:37 0° 24° (NNE) 2,481 10.5 -19.8°
Reaches altitude 10° 05:28:58 10° 40° (NE) 1,602 9.7 -19.5°
Maximum altitude 05:31:44 23° 94° (E) 1,032 9.1 -19.0°
Drops below altitude 10° 05:34:30 10° 148° (SSE) 1,596 9.6 -18.6°
Sets 05:36:50 0° 163° (SSE) 2,469 10.4 -18.3°
